Regional Weather Roundup
Issued by NWS Burlington, VT

Home | Current Version | Previous Version | Text Only | Print | Product List | Glossary On
Versions: 1 2 3 4 5 6 7 8 9 10 11 12 13 14 15 16 17 18 19 20 21 22 23 24 25 26 27 28 29 30 31 32 33 34 35 36 37 38 39 40 41 42 43 44 45 46 47 48 49 50
171
ASUS41 KBTV 172030
RWRBTV
VERMONT REGIONAL WEATHER ROUNDUP
NATIONAL WEATHER SERVICE BURLINGTON VT
300 PM EST SAT FEB 17 2018

NOTE: "FAIR" INDICATES FEW OR NO CLOUDS BELOW 12,000 FEET WITH NO
SIGNIFICANT WEATHER AND/OR OBSTRUCTIONS TO VISIBILITY.

* THESE REPORTS ARE NOT UNDER NWS QUALITY CONTROL AND/OR DO NOT
  REPORT WEATHER SUCH AS PRECIPITATION AND FOG.

VTZ001>019-172100-
_____VERMONT_____


CITY           SKY/WX    TMP DP  RH WIND       PRES   REMARKS
BURLINGTON     PTSUNNY   33   9  36 S13       30.20F WCI  24
MONTPELIER     FAIR      30   8  39 S12       30.21F WCI  20
MORRISVILLE    FAIR      31   7  36 S5        30.20F WCI  26
ST. JOHNSBURY*   N/A     30   6  36 MISG      30.21S
LYNDONVILLE*   FAIR      27   4  36 SE6       30.20F WCI  21
MIDDLEBURY*    FAIR      32  12  44 S3        30.19F
RUTLAND*       FAIR      33  14  45 NW5       30.19F WCI  29
SPRINGFIELD    FAIR      33   8  35 S9        30.23F WCI  25
HIGHGATE*      FAIR      30  11  44 S6        30.18F WCI  24
NEWPORT*       FAIR      28   7  40 S6        30.19F WCI  22
BENNINGTON     FAIR      36  13  38 S5        30.18F
ISLAND POND*     N/A     28 N/A N/A S3          N/A
GALLUP MILLS*    N/A     28 N/A N/A MISG        N/A
UNION VILLAGE*   N/A     34 N/A N/A MISG        N/A
MT. MANSFIELD*   N/A     18 N/A N/A S12         N/A  WCI   5

_____LAKE CHAMPLAIN_____


CITY           SKY/WX    TMP DP  RH WIND       PRES   REMARKS
BURTON ISLAND*   N/A     30  19  64 SW9         N/A  WCI  22
COLCHESTER RF*   N/A     32  16  51 S20         N/A  WCI  20

$$

NYZ007-026>031-035-052-083-087-172100-
_____NORTHERN NEW YORK_____


CITY           SKY/WX    TMP DP  RH WIND       PRES   REMARKS
PLATTSBURGH    FAIR      31  15  52 SE13      30.19F WCI  21
SARANAC LAKE   FAIR      28   5  37 S12       30.05F WCI  18
MASSENA        FAIR      29  15  56 SW6       30.16F WCI  23
OGDENSBURG*    FAIR      33  15  48 S5        30.11F WCI  28
POTSDAM*       SUNNY     28  14  54 W3        30.12F
STARK FALLS*     N/A     28 N/A N/A SE7         N/A  WCI  21
WATERTOWN      FAIR      32  16  51 SW5       30.10F WCI  27
FT DRUM        FAIR      30  15  53 SE13      30.06F WCI  20
ALBANY         CLOUDY    35  16  45 S7        30.22F WCI  29
GLENS FALLS    FAIR      31  14  49 SE7       30.21F WCI  24

$$
NHZ002-005-011-172100-
_____NEW HAMPSHIRE_____


CITY           SKY/WX    TMP DP  RH WIND       PRES   REMARKS
LEBANON        FAIR      34  12  40 S7        30.22F WCI  28
KEENE          FAIR      36   5  27 S10       30.25S WCI  28
MT WASHINGTON  CLOUDY     9 -11  40 SW29G37     N/A  WCI -14
PLYMOUTH       FAIR      33   4  30 E6        30.24F WCI  27
WHITEFIELD     FAIR      32   3  29 NW7       30.19R WCI  26

$$

_____REGIONAL QUEBEC LOCATIONS_____


CITY           SKY/WX    TMP DP  RH WIND       PRES   REMARKS
MONTREAL       CLOUDY    25  10  54 SE7       30.18F WCI  17
QUEBEC CITY    CLOUDY    23   9  54 S7        30.21F WCI  15
SHERBROOKE     SUNNY     27   3  36 SW8       30.19S WCI  18

_____REGIONAL ONTARIO LOCATIONS_____


CITY           SKY/WX    TMP DP  RH WIND       PRES   REMARKS
OTTAWA         CLOUDY    28  16  59 S9        30.11F WCI  20

______KEY______
VSB  - VISIBILITY IN MILES
WCI  - WIND CHILL INDEX
HX   - HEAT INDEX
$$
NNNN




USA.gov is the U.S. government's official web portal to all federal, state and local government web resources and services.